Weather History for KANB - June, 2013

Change the Weather History Date:

Saturday, June 1, 2013

  Actual Average Record
Temperature  
Mean Temperature 79 °F 74 °F  
Max Temperature 87 °F 85 °F 99 °F (2011)
Min Temperature 70 °F 64 °F 42 °F (1972)
Cooling Degree Days 14    
Growing Degree Days 29 (Base 50)    
Moisture  
Dew Point 68 °F    
Average Humidity 74    
Maximum Humidity 93    
Minimum Humidity 55    
Precipitation  
Precipitation 0.57 in 0.13 in 3.01 in (1946)
Month to date precipitation 0.57 0.13  
Year to date precipitation 33.50 23.06  
Sea Level Pressure  
Sea Level Pressure 30.02 in    
Wind  
Wind Speed 5 mph (SE)    
Max Wind Speed 18 mph    
Max Gust Speed 25 mph    
Visibility 10 miles    
Events Rain , Thunderstorm    
T = Trace of Precipitation, MM = Missing Value Source: NWS Daily Summary

Daily Weather History Graph

Daily Weather History Graph

Search for Another Location

Airport or City:

Trip Planner

Search our weather history database for the weather conditions in past years. The results will help you decide how hot, cold, wet, or windy it might be!

Date:

Astronomy

Jun. 01, 2013 Rise Set
Actual Time 5:34 AM CDT 7:48 PM CDT
Civil Twilight 5:05 AM CDT 8:17 PM CDT
Nautical Twilight 4:30 AM CDT 8:52 PM CDT
Astronomical Twilight 3:53 AM CDT 9:30 PM CDT
Moon 1:11 AM CDT (6/1) 1:34 PM CDT (6/1)
Length of Visible Light 15h 11m
Length of Day
14h 14m
Last Quarter, 40% of the Moon is Illuminated
Jun 1
Last Quarter
Jun 8
New
Jun 16
First Quarter
Jun 23
Full
Jun 29
Last Quarter

Hourly Weather History & Observations

Time (CDT) Temp. Heat Index Dew Point Humidity Pressure Visibility Wind Dir Wind Speed Gust Speed Precip Events Conditions
12:53 AM 73.9 °F - 64.0 °F 71% 30.03 in 10.0 mi NE 4.6 mph - N/A   Clear
1:53 AM 75.9 °F - 64.0 °F 67% 30.05 in 10.0 mi Variable 5.8 mph - N/A   Mostly Cloudy
2:53 AM 75.0 °F - 64.0 °F 69% 30.04 in 10.0 mi ESE 5.8 mph - N/A   Scattered Clouds
3:53 AM 73.0 °F - 64.0 °F 73% 30.04 in 10.0 mi Variable 4.6 mph - N/A   Mostly Cloudy
4:53 AM 73.0 °F - 64.9 °F 76% 30.04 in 10.0 mi NE 4.6 mph - N/A   Mostly Cloudy
5:53 AM 72.0 °F - 64.9 °F 78% 30.04 in 10.0 mi NE 5.8 mph - N/A   Overcast
6:53 AM 73.0 °F - 64.9 °F 76% 30.05 in 10.0 mi ENE 4.6 mph - N/A   Mostly Cloudy
7:53 AM 75.0 °F - 66.0 °F 73% 30.05 in 10.0 mi Variable 4.6 mph - N/A   Overcast
8:17 AM 77.0 °F - 66.2 °F 69% 30.08 in 10.0 mi Calm Calm - N/A   Overcast
8:53 AM 78.1 °F - 66.9 °F 68% 30.05 in 10.0 mi South 6.9 mph - N/A   Scattered Clouds
9:53 AM 81.0 °F 83.3 °F 66.9 °F 62% 30.04 in 10.0 mi SSW 9.2 mph - N/A   Mostly Cloudy
10:21 AM 80.6 °F 82.7 °F 66.2 °F 61% 30.06 in 10.0 mi SSW 8.1 mph - N/A   Mostly Cloudy
10:53 AM 82.0 °F 84.9 °F 68.0 °F 62% 30.03 in 10.0 mi SSW 8.1 mph - N/A   Overcast
11:53 AM 84.0 °F 86.5 °F 66.9 °F 56% 30.03 in 10.0 mi SSE 9.2 mph - N/A   Scattered Clouds
12:53 PM 82.9 °F 85.8 °F 68.0 °F 60% 30.03 in 10.0 mi South 6.9 mph - N/A   Mostly Cloudy
1:53 PM 86.0 °F 89.4 °F 68.0 °F 55% 30.00 in 10.0 mi SSW 10.4 mph - N/A   Mostly Cloudy
2:13 PM 84.2 °F 86.6 °F 66.2 °F 55% 30.02 in 10.0 mi SSE 8.1 mph - N/A Thunderstorm Scattered Clouds
2:28 PM 84.2 °F 86.6 °F 66.2 °F 55% 30.02 in 10.0 mi SSW 4.6 mph - N/A   Mostly Cloudy
2:53 PM 79.0 °F - 70.0 °F 74% 29.98 in 10.0 mi WNW 4.6 mph - 0.00 in Rain Light Rain
3:06 PM 78.8 °F - 71.6 °F 78% 30.02 in 10.0 mi West 5.8 mph - 0.00 in Thunderstorm Overcast
3:58 PM 75.2 °F - 71.6 °F 89% 30.00 in 10.0 mi East 3.5 mph - N/A Thunderstorm Partly Cloudy
4:09 PM 78.8 °F - 71.6 °F 78% 30.00 in 10.0 mi East 4.6 mph - N/A   Clear
4:39 PM 80.6 °F 84.6 °F 71.6 °F 74% 29.98 in 10.0 mi Variable 3.5 mph - N/A Thunderstorm Clear
4:53 PM 81.0 °F 84.9 °F 71.1 °F 72% 29.95 in 10.0 mi ENE 4.6 mph - 0.01 in Thunderstorm Thunderstorm
5:11 PM 73.4 °F - 69.8 °F 88% 30.01 in 9.0 mi Variable 5.8 mph - 0.49 in Rain , Thunderstorm Heavy Thunderstorms and Rain
5:19 PM 73.4 °F - 69.8 °F 88% 30.01 in 10.0 mi ESE 8.1 mph - 0.53 in Rain , Thunderstorm Thunderstorms and Rain
5:53 PM 73.9 °F - 70.0 °F 87% 29.99 in 10.0 mi ENE 4.6 mph - 0.54 in Thunderstorm Mostly Cloudy
7:53 PM 72.0 °F - 70.0 °F 93% 29.99 in 10.0 mi Calm Calm - 0.00 in   Clear
8:53 PM 72.0 °F - 70.0 °F 93% 30.01 in 10.0 mi Calm Calm - N/A   Partly Cloudy
9:53 PM 72.0 °F - 70.0 °F 93% 29.98 in 10.0 mi Calm Calm - N/A   Partly Cloudy
10:53 PM 72.0 °F - 70.0 °F 93% 29.98 in 10.0 mi East 3.5 mph - N/A   Partly Cloudy
11:53 PM 70.0 °F - 66.9 °F 90% 29.98 in 10.0 mi Calm Calm - N/A   Clear